This demonstration page uses our WeatherBlox Daily Observations layout. Learn more.

Left ArrowRight Arrow

30.21309, -93.2044

Hourly Observations for March 23, 2015

Temp ( °F °C ) Dew Point ( °F °C ) Humidity (%) Winds ( mph kmh ) Pressure ( in mb ) Visibility ( mi km ) Precip ( " mm )
12:15 am 00:15 Cloudy 60 15.5 54 12 80 80 N 9 15 30.03 1017 10 16 0.00 0.00
12:35 am 00:35 Cloudy 60 15.3 53 11.9 80 80 N 13 20 30.03 1017 10 16 0.00 0.00
12:55 am 00:55 Cloudy 59 15.2 53 11.6 79 79 NNW 9 15 30.03 1017 10 16 0.00 0.00
1:15 am 01:15 Cloudy 59 15.1 53 11.5 79 79 NNW 12 19 30.03 1017 10 16 0.00 0.00
1:35 am 01:35 Cloudy 59 15.2 53 11.6 79 79 NNW 9 15 30.03 1017 10 16 0.00 0.00
1:55 am 01:55 Cloudy 59 15.1 53 11.7 80 80 NNW 10 17 30.03 1017 10 16 0.00 0.00
2:15 am 02:15 Cloudy 59 15 54 12 82 82 N 12 19 30.03 1017 10 16 0.00 0.00
2:35 am 02:35 Cloudy 58 14.5 54 12 85 85 N 12 19 30.03 1017 10 16 0.00 0.00
2:55 am 02:55 Cloudy 58 14.5 53 11.8 84 84 NNW 6 9 30.03 1017 10 16 0.00 0.00
3:15 am 03:15 Cloudy 58 14.4 53 11.5 83 83 NNW 9 15 30.03 1017 10 16 0.00 0.00
3:35 am 03:35 Cloudy 58 14.3 53 11.5 83 83 N 10 17 30.03 1017 10 16 0.00 0.00
3:55 am 03:55 Cloudy 57 14 51 10.5 80 80 NNW 15 24 30.03 1017 10 16 0.00 0.00
4:15 am 04:15 Cloudy 57 14 50 10.2 78 78 NNW 10 17 30.03 1017 10 16 0.00 0.00
4:35 am 04:35 Cloudy 57 14 51 10.3 79 79 N 6 9 30.03 1017 10 16 0.00 0.00
4:55 am 04:55 Cloudy 57 14 50 10.2 78 78 NNW 8 13 30.03 1017 10 16 0.00 0.00
5:15 am 05:15 Cloudy 57 14.1 51 10.5 79 79 NNW 7 11 30.03 1017 10 16 0.00 0.00
6:00 am 06:00 Cloudy 57 14 52 11 82 82 N 12 19 30.03 1017 10 16 0.00 0.00
6:50 am 06:50 Mostly Cloudy 55 13 52 11 88 88 N 12 19 30.03 1017 10 16 0.00 0.00
7:45 am 07:45 Cloudy 57 14 52 11 82 82 N 12 19 30.09 1019 10 16 0.00 0.00
8:55 am 08:55 Cloudy 57 14 52 11 82 82 N 12 19 30.09 1019 10 16 0.00 0.00
9:55 am 09:55 Mostly Cloudy 59 15 52 11 77 77 N 10 17 30.09 1019 10 16 0.00 0.00
10:55 am 10:55 Cloudy 61 16 52 11 72 72 N 9 15 30.12 1020 10 16 0.00 0.00
11:55 am 11:55 Mostly Cloudy 64 18 54 12 68 68 NE 9 15 30.12 1020 10 16 0.00 0.00
12:45 pm 12:45 Mostly Cloudy 66 19 54 12 64 64 NE 12 19 30.09 1019 10 16 0.00 0.00
1:45 pm 13:45 Partly Cloudy 68 20 54 12 60 60 NNE 5 7 30.06 1018 10 16 0.00 0.00
4:50 pm 16:50 Partly Cloudy 72 22 54 12 53 53 N 7 11 30.03 1017 10 16 0.00 0.00
9:50 pm 21:50 Mostly Clear 61 16 57 14 88 88 Calm 30.06 1018 10 16 0.00 0.00
10:15 pm 22:15 Clear 59 15 57 13.8 93 93 Calm 30.09 1019 10 16 0.00 0.00
10:35 pm 22:35 Clear 59 14.9 56 13.6 92 92 Calm 30.09 1019 10 16 0.00 0.00
10:55 pm 22:55 Clear 59 14.9 56 13.4 91 91 SSE 3 6 30.09 1019 10 16 0.00 0.00
11:15 pm 23:15 Clear 57 14.1 55 13 93 93 Calm 30.09 1019 10 16 0.00 0.00
11:35 pm 23:35 Clear 57 13.9 56 13.5 97 97 Calm 30.09 1019 10 16 0.00 0.00
11:55 pm 23:55 Clear 59 14.9 55 13 89 89 SW 3 6 30.09 1019 10 16 0.00 0.00

Powered by AerisWeather